Time,TemperatureF,DewpointF,PressureIn,WindDirection,WindDirectionDegrees,WindSpeedMPH,WindSpeedGustMPH,Humidity,HourlyPrecipIn,Conditions,Clouds,dailyrainin,SoftwareType,DateUTC
2017-05-23 00:15:00,38.1,31.0,30.16,ENE,68,2.0,3.0,76,0.00,,,0.00,weatherlink.com 1.10,2017-05-23 06:15:00,
2017-05-23 00:30:00,38.2,31.0,30.17,ENE,63,1.0,5.0,74,0.00,,,0.00,weatherlink.com 1.10,2017-05-23 06:30:00,
2017-05-23 00:45:00,37.3,30.0,30.17,NE,41,0.0,2.0,76,0.00,,,0.00,weatherlink.com 1.10,2017-05-23 06:45:00,
2017-05-23 01:01:00,37.0,30.0,30.16,NNE,26,2.0,2.0,77,0.00,,,0.00,weatherlink.com 1.10,2017-05-23 07:01:00,
2017-05-23 01:16:00,36.9,30.0,30.15,NNE,25,0.0,4.0,77,0.00,,,0.00,weatherlink.com 1.10,2017-05-23 07:16:00,
2017-05-23 01:31:00,36.5,30.0,30.15,North,11,0.0,2.0,78,0.00,,,0.00,weatherlink.com 1.10,2017-05-23 07:31:00,
2017-05-23 01:46:00,36.7,30.0,30.14,SE,140,0.0,3.0,78,0.00,,,0.00,weatherlink.com 1.10,2017-05-23 07:46:00,
2017-05-23 02:01:00,36.5,30.0,30.14,SE,129,0.0,3.0,78,0.00,,,0.00,weatherlink.com 1.10,2017-05-23 08:01:00,
2017-05-23 02:16:00,36.5,30.0,30.13,SE,129,0.0,2.0,78,0.00,,,0.00,weatherlink.com 1.10,2017-05-23 08:16:00,
2017-05-23 02:31:00,36.0,30.0,30.12,SE,129,0.0,1.0,79,0.00,,,0.00,weatherlink.com 1.10,2017-05-23 08:31:00,
2017-05-23 02:46:00,35.7,30.0,30.12,SE,129,0.0,2.0,80,0.00,,,0.00,weatherlink.com 1.10,2017-05-23 08:46:00,
2017-05-23 03:01:00,35.9,30.0,30.11,NE,47,0.0,4.0,79,0.00,,,0.00,weatherlink.com 1.10,2017-05-23 09:01:00,
2017-05-23 03:16:00,35.9,30.0,30.11,NE,47,0.0,0.0,79,0.00,,,0.00,weatherlink.com 1.10,2017-05-23 09:16:00,
2017-05-23 03:31:00,35.4,30.0,30.11,NE,55,0.0,3.0,81,0.00,,,0.00,weatherlink.com 1.10,2017-05-23 09:31:00,
2017-05-23 03:46:00,35.7,30.0,30.10,ENE,62,0.0,3.0,80,0.00,,,0.00,weatherlink.com 1.10,2017-05-23 09:46:00,
2017-05-23 04:01:00,35.1,30.0,30.10,ENE,62,0.0,0.0,81,0.00,,,0.00,weatherlink.com 1.10,2017-05-23 10:01:00,
2017-05-23 04:16:00,34.9,30.0,30.10,ENE,62,0.0,0.0,82,0.00,,,0.00,weatherlink.com 1.10,2017-05-23 10:16:00,
2017-05-23 04:31:00,35.0,30.0,30.09,NE,55,0.0,2.0,82,0.00,,,0.00,weatherlink.com 1.10,2017-05-23 10:31:00,
2017-05-23 04:46:00,34.7,30.0,30.09,NE,55,0.0,1.0,83,0.00,,,0.00,weatherlink.com 1.10,2017-05-23 10:46:00,
2017-05-23 05:01:00,34.7,30.0,30.09,NE,55,0.0,0.0,83,0.00,,,0.00,weatherlink.com 1.10,2017-05-23 11:01:00,
2017-05-23 05:17:00,34.7,30.0,30.09,North,4,0.0,0.0,83,0.00,,,0.00,weatherlink.com 1.10,2017-05-23 11:17:00,
2017-05-23 05:32:00,34.8,30.0,30.09,ENE,67,0.0,3.0,83,0.00,,,0.00,weatherlink.com 1.10,2017-05-23 11:32:00,
2017-05-23 05:47:00,35.0,31.0,30.09,NE,46,0.0,1.0,84,0.00,,,0.00,weatherlink.com 1.10,2017-05-23 11:47:00,
2017-05-23 06:02:00,35.1,31.0,30.08,East,88,0.0,3.0,84,0.00,,,0.00,weatherlink.com 1.10,2017-05-23 12:02:00,
2017-05-23 06:17:00,35.2,31.0,30.08,NE,36,0.0,0.0,83,0.00,,,0.00,weatherlink.com 1.10,2017-05-23 12:17:00,
2017-05-23 06:32:00,35.2,31.0,30.07,NE,56,0.0,2.0,83,0.00,,,0.00,weatherlink.com 1.10,2017-05-23 12:32:00,
2017-05-23 06:47:00,35.7,31.0,30.07,ENE,70,0.0,5.0,82,0.00,,,0.00,weatherlink.com 1.10,2017-05-23 12:47:00,
2017-05-23 07:02:00,36.4,31.0,30.06,ENE,68,0.0,0.0,82,0.00,,,0.00,weatherlink.com 1.10,2017-05-23 13:02:00,
2017-05-23 07:17:00,37.3,33.0,30.06,NNE,22,0.0,3.0,83,0.00,,,0.00,weatherlink.com 1.10,2017-05-23 13:17:00,
2017-05-23 07:32:00,38.1,33.0,30.06,NNE,22,0.0,2.0,82,0.00,,,0.00,weatherlink.com 1.10,2017-05-23 13:32:00,
2017-05-23 07:47:00,39.6,34.0,30.05,ENE,73,0.0,1.0,80,0.00,,,0.00,weatherlink.com 1.10,2017-05-23 13:47:00,
2017-05-23 08:02:00,40.3,34.0,30.05,East,81,2.0,2.0,79,0.00,,,0.00,weatherlink.com 1.10,2017-05-23 14:02:00,
2017-05-23 08:17:00,41.6,35.0,30.03,East,93,0.0,1.0,76,0.00,,,0.00,weatherlink.com 1.10,2017-05-23 14:17:00,
2017-05-23 08:32:00,43.3,34.0,30.02,East,91,0.0,2.0,71,0.00,,,0.00,weatherlink.com 1.10,2017-05-23 14:32:00,
2017-05-23 08:47:00,44.6,35.0,30.01,East,91,0.0,1.0,69,0.00,,,0.00,weatherlink.com 1.10,2017-05-23 14:47:00,
2017-05-23 09:03:00,45.9,35.0,30.00,East,91,0.0,0.0,66,0.00,,,0.00,weatherlink.com 1.10,2017-05-23 15:03:00,
2017-05-23 09:18:00,46.4,35.0,30.00,East,91,0.0,0.0,64,0.00,,,0.00,weatherlink.com 1.10,2017-05-23 15:18:00,
2017-05-23 09:33:00,47.8,34.0,29.98,East,91,0.0,1.0,60,0.00,,,0.00,weatherlink.com 1.10,2017-05-23 15:33:00,
2017-05-23 09:48:00,50.0,35.0,29.98,East,91,0.0,1.0,57,0.00,,,0.00,weatherlink.com 1.10,2017-05-23 15:48:00,
2017-05-23 10:03:00,52.1,35.0,29.97,East,91,0.0,0.0,53,0.00,,,0.00,weatherlink.com 1.10,2017-05-23 16:03:00,
2017-05-23 10:18:00,53.6,35.0,29.97,East,91,0.0,0.0,50,0.00,,,0.00,weatherlink.com 1.10,2017-05-23 16:18:00,
2017-05-23 10:33:00,54.4,35.0,29.96,East,91,0.0,0.0,49,0.00,,,0.00,weatherlink.com 1.10,2017-05-23 16:33:00,
2017-05-23 10:48:00,55.3,35.0,29.95,East,91,0.0,1.0,47,0.00,,,0.00,weatherlink.com 1.10,2017-05-23 16:48:00,
2017-05-23 11:03:00,55.8,35.0,29.95,ENE,67,0.0,0.0,46,0.00,,,0.00,weatherlink.com 1.10,2017-05-23 17:03:00,
2017-05-23 11:18:00,56.4,35.0,29.94,SE,133,0.0,0.0,45,0.00,,,0.00,weatherlink.com 1.10,2017-05-23 17:18:00,
2017-05-23 11:34:00,57.5,35.0,29.93,South,170,1.0,4.0,43,0.00,,,0.00,weatherlink.com 1.10,2017-05-23 17:34:00,
2017-05-23 11:49:00,58.6,35.0,29.91,South,172,0.0,1.0,41,0.00,,,0.00,weatherlink.com 1.10,2017-05-23 17:49:00,
2017-05-23 12:04:00,59.3,35.0,29.91,SSE,147,1.0,5.0,41,0.00,,,0.00,weatherlink.com 1.10,2017-05-23 18:04:00,
2017-05-23 12:19:00,59.6,35.0,29.89,SSE,161,0.0,8.0,40,0.00,,,0.00,weatherlink.com 1.10,2017-05-23 18:19:00,
2017-05-23 12:34:00,60.0,35.0,29.88,SSE,153,0.0,4.0,39,0.00,,,0.00,weatherlink.com 1.10,2017-05-23 18:34:00,
2017-05-23 12:49:00,59.6,35.0,29.88,SE,139,0.0,5.0,40,0.00,,,0.00,weatherlink.com 1.10,2017-05-23 18:49:00,
2017-05-23 13:04:00,59.4,34.0,29.87,ESE,112,0.0,2.0,39,0.00,,,0.00,weatherlink.com 1.10,2017-05-23 19:04:00,
2017-05-23 13:19:00,59.2,35.0,29.86,SE,137,0.0,2.0,40,0.00,,,0.00,weatherlink.com 1.10,2017-05-23 19:19:00,
2017-05-23 13:34:00,60.0,34.0,29.84,East,99,0.0,5.0,38,0.00,,,0.00,weatherlink.com 1.10,2017-05-23 19:34:00,
2017-05-23 13:49:00,60.9,34.0,29.83,WSW,238,0.0,2.0,37,0.00,,,0.00,weatherlink.com 1.10,2017-05-23 19:49:00,
2017-05-23 14:04:00,61.0,34.0,29.82,WSW,239,0.0,4.0,37,0.00,,,0.00,weatherlink.com 1.10,2017-05-23 20:04:00,
2017-05-23 14:19:00,60.8,34.0,29.81,NW,320,0.0,3.0,37,0.00,,,0.00,weatherlink.com 1.10,2017-05-23 20:19:00,
2017-05-23 14:34:00,61.0,34.0,29.80,SE,132,0.0,3.0,36,0.00,,,0.00,weatherlink.com 1.10,2017-05-23 20:34:00,
2017-05-23 14:50:00,60.6,33.0,29.80,SE,141,1.0,6.0,36,0.00,,,0.00,weatherlink.com 1.10,2017-05-23 20:50:00,
2017-05-23 15:04:00,60.0,32.0,29.79,ESE,122,2.0,4.0,35,0.00,,,0.00,weatherlink.com 1.10,2017-05-23 21:04:00,
2017-05-23 15:20:00,59.6,32.0,29.78,SSE,165,0.0,2.0,36,0.00,,,0.00,weatherlink.com 1.10,2017-05-23 21:20:00,
2017-05-23 15:35:00,59.2,30.0,29.77,SSE,162,0.0,4.0,33,0.00,,,0.00,weatherlink.com 1.10,2017-05-23 21:35:00,
2017-05-23 15:50:00,58.9,30.0,29.76,ESE,122,0.0,4.0,33,0.00,,,0.00,weatherlink.com 1.10,2017-05-23 21:50:00,
2017-05-23 16:05:00,59.4,30.0,29.76,South,174,0.0,5.0,33,0.00,,,0.00,weatherlink.com 1.10,2017-05-23 22:05:00,
2017-05-23 16:20:00,59.1,30.0,29.75,South,185,0.0,6.0,33,0.00,,,0.00,weatherlink.com 1.10,2017-05-23 22:20:00,
2017-05-23 16:35:00,58.9,30.0,29.74,East,83,0.0,3.0,33,0.00,,,0.00,weatherlink.com 1.10,2017-05-23 22:35:00,
2017-05-23 16:50:00,59.5,29.0,29.73,NE,39,1.0,5.0,32,0.00,,,0.00,weatherlink.com 1.10,2017-05-23 22:50:00,
2017-05-23 17:05:00,59.2,29.0,29.71,SSW,199,0.0,3.0,32,0.00,,,0.00,weatherlink.com 1.10,2017-05-23 23:05:00,
2017-05-23 17:20:00,59.2,27.0,29.70,NW,312,5.0,7.0,29,0.00,,,0.00,weatherlink.com 1.10,2017-05-23 23:20:00,
2017-05-23 17:35:00,59.0,27.0,29.69,SE,129,0.0,15.0,30,0.00,,,0.00,weatherlink.com 1.10,2017-05-23 23:35:00,